Rbgn^[z[y[W
メイン
   新天体発見情報
     Comet P/2012 T1 = P/2017 O3 (PANSTARRS)
投稿するにはまず登録を

スレッド表示 | 新しいものから 前のトピック | 次のトピック | 下へ
投稿者 スレッド
佐藤裕久
投稿日時: 2017-9-1 0:30
モデレータ
登録日: 2005-6-12
居住地: 日本
投稿: 2505
オンライン
Comet P/2012 T1 = P/2017 O3 (PANSTARRS)

P/2012 T1 (CBET 3254参照)の二つの独立した検出が報告された。M. Mommert (北アリゾナ大学)の
通報によると、7月28.2日UT、MommertとJ. Agarwalは、チリ、Cerro Pachonにある4.1-m Southern 
AstrophysicalResearch (SOAR) Cassegrain望遠鏡で得た、g-バンドCCD画像から小惑星状天体に見え
るこの彗星を検出した。
M. Micheliは、H. H. Hsieh, J. Chavez, L. MagillとK. Silvaが、複数夜、Cerro Pachonにある
8.1-m "Gemini South" 望遠鏡で得た(たぶん再び小惑星状天体に見える)、2012 T1の検出観測を報告
した。
MPEC 2014-K54のG. V. Williamsの予報に対して、Delta(T)は、-0.04 dayであった。ICQ's 2017 Comet
Handbookの中野主一氏の予報に対して、Delta(T)は、-0.01 dayであった。

検出位置は次のとおり、

     2017 UT             R.A. (2000) Decl.       Mag.   Observer
     July  1.37087   22 06 07.32   -23 19 02.0   23.9   Hsieh
           1.37866   22 06 07.32   -23 19 04.8   23.7     "
          18.24169   22 03 11.57   -25 15 20.7   23.3     "
          18.24559   22 03 11.47   -25 15 22.5   23.5     "
          18.24948   22 03 11.39   -25 15 24.1   23.4     "
          21.41547   22 01 52.48   -25 39 51.6   22.8     "
          21.41937   22 01 52.37   -25 39 53.5   22.8     "
          21.42328   22 01 52.25   -25 39 55.5   22.4     "
          28.18964   21 58 20.27   -26 33 12.4   24.4   Mommert
          28.19474   21 58 20.09   -26 33 14.9   23.9     "
          28.20326   21 58 19.76   -26 33 19.1   24.9     "
          28.21181   21 58 19.46   -26 33 23.1   24.1     "
          28.22033   21 58 19.13   -26 33 27.1   24.7     "
     Aug. 17.05851   21 43 45.98   -28 57 24.9   22.8   Hsieh
          17.06631   21 43 45.56   -28 57 28.2   23.5     "

連結軌道要素と位置推算表は次のとおり、

Orbital elements:
    P/2012 T1 (PANSTARRS)
Epoch 2012 Sept. 30.0 TT = JDT 2456200.5
T 2012 Sept. 10.93973 TT                                MPCW
q   2.4107712            (2000.0)            P               Q
n   0.17600941     Peri.  300.59514     +0.88000833     -0.43473243
a   3.1533980      Node    85.77432     +0.47426471     +0.78254387
e   0.2355005      Incl.   11.05870     +0.02565776     +0.44568240
P   5.60
From 173 observations 2012 Oct. 6-2017 Aug. 17, mean residual 0".4.

    P/2012 T1 (PANSTARRS)
Epoch 2018 Mar. 23.0 TT = JDT 2458200.5
T 2018 Apr. 11.64328 TT                                 MPCW
q   2.4019953            (2000.0)            P               Q
n   0.17625576     Peri.  299.90065     +0.88561916     -0.42320787
a   3.1504591      Node    85.72153     +0.46398314     +0.78860055
e   0.2375729      Incl.   11.05652     +0.01995888     +0.44609896
P   5.59
From 173 observations 2012 Oct. 6-2017 Aug. 17, mean residual 0".4.

    P/2012 T1 (PANSTARRS)
Epoch 2023 Oct. 23.0 TT = JDT 2460240.5
T 2023 Nov. 10.88646 TT                                 MPCW
q   2.3948511            (2000.0)            P               Q
n   0.17635568     Peri.  299.71815     +0.88723278     -0.41979056
a   3.1492689      Node    85.68419     +0.46096053     +0.79031303
e   0.2395533      Incl.   11.06014     +0.01825876     +0.44629720
P   5.59
From 173 observations 2012 Oct. 6-2017 Aug. 17, mean residual 0".4.

    P/2012 T1 (PANSTARRS)
Epoch 2017 Sept. 4.0 TT = JDT 2458000.5
T 2018 Apr. 11.73332 TT                                 MPCW
q   2.4019037            (2000.0)            P               Q
n   0.17630216     Peri.  299.92285     +0.88542858     -0.42360563
a   3.1499063      Node    85.72502     +0.46433836     +0.78839691
e   0.2374682      Incl.   11.05658     +0.02015238     +0.44608136
P   5.59
From 173 observations 2012 Oct. 6-2017 Aug. 17, mean residual 0".4.

Ephemeris:
    P/2012 T1 (PANSTARRS)
Date    TT    R. A. (2000) Decl.     Delta      r     Elong.  Phase   m1
2017 07 26    21 59 35.1 -26 15 55   1.7842  2.7451   156.4     8.5  23.6
...
2017 08 10    21 49 25.6 -28 10 33   1.7185  2.7122   165.6     5.3  23.5
...
2017 08 18    21 42 59.4 -29 03 07   1.7072  2.6949   164.1     5.9  23.5
...
2017 08 24    21 38 05.5 -29 35 46   1.7096  2.6822   160.0     7.4  23.4
2017 08 25    21 37 17.4 -29 40 33   1.7109  2.6801   159.2     7.7  23.4
2017 08 26    21 36 29.6 -29 45 07   1.7125  2.6780   158.4     8.0  23.4
...
2017 09 01    21 31 55.8 -30 08 12   1.7268  2.6655   153.0     9.9  23.4
...
2017 09 09    21 26 40.4 -30 26 51   1.7588  2.6491   145.2    12.5  23.5
...
2017 09 24    21 20 36.4 -30 24 56   1.8530  2.6192   130.6    16.9  23.5

(CBET 4425、MPEC 2017-Q115) 
スレッド表示 | 新しいものから 前のトピック | 次のトピック | トップ

投稿するにはまず登録を
 
© 1999 Tsutomu Seki.